Location: Auttagershofen
(48.1940°N, 10.0237°E)
Time: 22:11:41
(UTC+00:00)

Cosmos 1743 Rocket - Pass Details

Date: 18 January 2026
Orbit: 597 x 626 km, 82.6° (Epoch: 18 February)

Event Time Altitude Azimuth Distance (km) Brightness Sun altitude
Rises 04:46:54 0° 184° (S) 2,897 7.0 -22.3°
Reaches altitude 10° 04:49:07 10° 183° (S) 1,993 6.2 -21.9°
Maximum altitude 04:53:32 79° 97° (E) 641 3.6 -21.2°
Drops below altitude 10° 04:57:58 10° 12° (NNE) 1,997 6.2 -20.4°
Sets 05:00:12 0° 11° (N) 2,903 7.0 -20.1°
